{"data":{"norad_id":62138,"epoch":"2026-09-22T22:57:30.708288Z","epoch_age_seconds":95352,"freshness":"FRESH","line1":"1 62138U 24223A   26265.95660542  .00002404  00000+0  11582-3 0  9990","line2":"2 62138  97.4419 107.9958 0001774  89.1237 271.0201 15.19694901100553","mean_motion":15.19694901,"eccentricity":0.0001774,"inclination_deg":97.4419,"raan_deg":107.9958,"arg_perigee_deg":89.1237,"mean_anomaly_deg":271.0201,"bstar":0.00011582,"rev_number":10055,"period_min":94.755861788603,"perigee_km":505.54056866098,"apogee_km":507.98333080835,"semimajor_km":6884.8989497347,"source":"CELESTRAK","updated_at":"2026-09-23T09:00:21.251362Z"}}